Tracking 29090 objects as of 15-Jul-2024
HD Live streaming from Space Station
objects crossing your sky now

STARLINK-6331

Track STARLINK-6331 now!
10-day predictions
STARLINK-6331 is classified as:


NORAD ID: 57351
Int'l Code: 2023-099Z
Perigee: 565.4 km
Apogee: 567.0 km
Inclination: 43.0 °
Period: 95.8 minutes
Semi major axis: 6937 km
RCS: Unknown
Launch date: July 16, 2023
Source: United States (US)
Launch site: AIR FORCE EASTERN TEST RANGE (AFETR)
Your satellite tracking list
Your tracking list is empty




NASA's NSSDC Master Catalog

Two Line Element Set (TLE):
1 57351U 23099Z   24196.94453361  .00004310  00000-0  33385-3 0  9994
2 57351  43.0032 283.6449 0001208 271.2089  88.8615 15.02541266 56246
Source of the keplerian elements: AFSPC